Regional Weather Roundup
Issued by NWS

Home | Current Version | Previous Version | Graphics & Text | Print | Product List | Glossary On
Versions: 1 2 3 4 5 6 7 8 9 10 11 12 13 14 15 16 17 18 19 20 21 22 23 24 25 26 27 28 29 30 31 32 33 34 35 36 37 38 39 40 41 42 43 44 45 46 47 48 49 50
000
ASUS43 KLSX 290707
RWRMO

WEATHER SUMMARY FOR MISSOURI
NATIONAL WEATHER SERVICE SPRINGFIELD MO
200 AM CDT SUN MAY 29 2016

NOTE: "FAIR" INDICATES FEW OR NO CLOUDS BELOW 12,000 FEET WITH NO
       SIGNIFICANT WEATHER AND/OR OBSTRUCTIONS TO VISIBILITY.
       CURRENT SKY AND/OR WEATHER CONDITIONS ARE NOT AVAILABLE FOR
       CHILLICOTHE AND FARMINGTON.

MOZ001>031-035>038-043-044-053-054-290800-
...NORTHERN AND WESTERN MISSOURI...

CITY           SKY/WX    TMP DP  RH WIND       PRES   REMARKS
KANSAS CTY INT CLEAR     61  57  87 S7        30.02S
KANSAS C DTWN  CLEAR     67  59  75 SW3       30.02R
LEE`S SUMMIT   CLEAR     65  59  81 SW6       30.03F
ST JOSEPH      CLEAR     63  59  87 CALM      30.00S
CHILLICOTHE      N/A     63  60  90 VRB3      30.01S
KIRKSVILLE     CLEAR     64  59  83 SW7       30.00S

$$
MOZ066>068-077>081-088>096-101>105-290800-
...SOUTHWEST MISSOURI...

CITY           SKY/WX    TMP DP  RH WIND       PRES   REMARKS
SPRINGFIELD    CLEAR     63  60  90 S5        30.06S
JOPLIN         CLEAR     65  63  93 S3        30.05F

$$
MOZ032>034-039>042-045>050-055>058-069>072-290800-
...CENTRAL MISSOURI...

CITY           SKY/WX    TMP DP  RH WIND       PRES   REMARKS
COLUMBIA       CLEAR     65  62  90 S5        30.03S
JEFFERSON CITY PTCLDY    66  63  90 CALM      30.02S
ROLLA          CLEAR     65  63  93 SW8       30.03F
SEDALIA        CLEAR     66  61  84 SW8       30.04F
WHITEMAN AFB   PTCLDY    63  62  99 SW7       30.02S
WARRENSBURG    CLEAR     61  59  94 S5        30.03S

$$
MOZ051-052-059>065-290800-
...EAST CENTRAL MISSOURI...

CITY           SKY/WX    TMP DP  RH WIND       PRES   REMARKS
ST LOUIS INTL  PTCLDY    70  57  63 W5        30.02S
SPIRIT OF STL  CLOUDY    66  60  81 CALM      30.01S
ST CHARLES     MOCLDY    69  60  73 CALM      30.00S

$$
MOZ072>076-082>087-097>100-106>115-290800-
...SOUTH CENTRAL AND SOUTHEAST MISSOURI...

CITY           SKY/WX    TMP DP  RH WIND       PRES   REMARKS
CAPE GIRARDEAU PTCLDY    70  68  93 S7        30.02F
FARMINGTON     CLEAR     66  64  93 CALM      30.04F
POPLAR BLUFF   CLEAR     68  67  96 CALM      30.03F
WEST PLAINS    PTCLDY    69  64  84 S3        30.07F

$$



USA.gov is the U.S. government's official web portal to all federal, state and local government web resources and services.